Location: ???????
(56.2167°N, 38.0500°E)
Time: 03:12:46
(UTC+00:00)

Cosmos 1934 Rocket - Pass Details

Date: 19 May 2025
Orbit: 938 x 997 km, 83.0° (Epoch: 15 June)

Event Time Altitude Azimuth Distance (km) Brightness Sun altitude
Rises 19:36:59 0° 348° (NNW) 3,662 8.8 -10.5°
Reaches altitude 10° 19:39:31 10° 352° (N) 2,720 7.7 -10.7°
Maximum altitude 19:45:42 62° 73° (ENE) 1,100 4.3 -11.0°
Enters shadow 19:51:03 15° 152° (SSE) 2,422 5.4 -11.3°
